Location: Unspecified
(0.0000°N, 0.0000°E)
Time: 08:41:21
(UTC+00:00)

CZ-3 Stage 3 - Pass Details

Date: 27 May 2019
Orbit: 501 x 34691 km, 30.5° (Epoch: 18 June)

Event Time Altitude Azimuth Distance (km) Brightness Sun altitude
Exits shadow 23:40:53 - 332° (NNW) 4,185 6.5 -68.3°
Reaches altitude 10° 23:41:25 10° 335° (NNW) 4,205 6.5 -68.3°
Maximum altitude 06:56:33 54° 124° (ESE) 29,607 11.0 13.8°
Drops below altitude 10° 09:05:37 10° 128° (SE) 12,307 9.0 43.0°
Sets 09:12:19 0° 125° (SE) 11,543 8.7 44.4°
